Time,TemperatureF,DewpointF,PressureIn,WindDirection,WindDirectionDegrees,WindSpeedMPH,WindSpeedGustMPH,Humidity,HourlyPrecipIn,Conditions,Clouds,dailyrainin,SoftwareType,DateUTC
2013-07-26 00:04:00,78.8,67.0,27.44,SSE,158,0.0,0.0,67,0.00,,,0.00,WUHU216HW,2013-07-26 07:04:00,
2013-07-26 00:09:00,78.7,66.8,27.44,SSE,158,0.0,0.0,67,0.00,,,0.00,WUHU216HW,2013-07-26 07:09:00,
2013-07-26 00:14:00,78.5,66.6,27.44,SSE,158,0.0,0.0,67,0.00,,,0.00,WUHU216HW,2013-07-26 07:14:00,
2013-07-26 00:19:00,78.3,66.4,27.44,SE,135,0.0,0.0,67,0.00,,,0.00,WUHU216HW,2013-07-26 07:19:00,
2013-07-26 00:24:00,78.3,66.9,27.44,East,90,0.0,0.0,68,0.00,,,0.00,WUHU216HW,2013-07-26 07:24:00,
2013-07-26 00:29:00,78.1,66.7,27.44,ENE,68,0.0,0.2,68,0.00,,,0.00,WUHU216HW,2013-07-26 07:29:00,
2013-07-26 00:34:00,78.1,66.7,27.44,NE,45,0.0,0.2,68,0.00,,,0.00,WUHU216HW,2013-07-26 07:34:00,
2013-07-26 00:39:00,78.1,66.7,27.44,NE,45,0.0,0.0,68,0.00,,,0.00,WUHU216HW,2013-07-26 07:39:00,
2013-07-26 00:44:00,78.1,66.7,27.44,ESE,113,0.0,0.0,68,0.00,,,0.00,WUHU216HW,2013-07-26 07:44:00,
2013-07-26 00:49:00,78.1,66.7,27.44,North,0,0.2,0.2,68,0.00,,,0.00,WUHU216HW,2013-07-26 07:49:00,
2013-07-26 00:54:00,77.9,66.5,27.44,North,0,0.0,0.4,68,0.00,,,0.00,WUHU216HW,2013-07-26 07:54:00,
2013-07-26 00:59:00,77.9,66.5,27.44,North,0,0.0,0.4,68,0.00,,,0.00,WUHU216HW,2013-07-26 07:59:00,
2013-07-26 01:04:00,77.9,66.5,27.44,North,0,0.0,0.0,68,0.00,,,0.00,WUHU216HW,2013-07-26 08:04:00,
2013-07-26 01:09:00,77.9,66.5,27.44,North,0,0.0,0.0,68,0.00,,,0.00,WUHU216HW,2013-07-26 08:09:00,
2013-07-26 01:14:00,77.8,66.3,27.44,North,0,0.0,0.0,68,0.00,,,0.00,WUHU216HW,2013-07-26 08:14:00,
2013-07-26 01:19:00,77.8,66.3,27.44,North,0,0.0,0.0,68,0.00,,,0.00,WUHU216HW,2013-07-26 08:19:00,
2013-07-26 01:24:00,77.8,66.8,27.44,North,0,0.0,0.0,69,0.00,,,0.00,WUHU216HW,2013-07-26 08:24:00,
2013-07-26 01:29:00,77.8,66.8,27.44,North,0,0.0,0.0,69,0.00,,,0.00,WUHU216HW,2013-07-26 08:29:00,
2013-07-26 01:34:00,77.8,66.8,27.44,SW,225,0.0,0.0,69,0.00,,,0.00,WUHU216HW,2013-07-26 08:34:00,
2013-07-26 01:39:00,77.6,66.6,27.44,SW,225,0.0,0.0,69,0.00,,,0.00,WUHU216HW,2013-07-26 08:39:00,
2013-07-26 01:44:00,77.6,66.6,27.44,SW,225,0.0,0.0,69,0.00,,,0.00,WUHU216HW,2013-07-26 08:44:00,
2013-07-26 01:49:00,77.6,66.6,27.44,SW,225,0.0,0.4,69,0.00,,,0.00,WUHU216HW,2013-07-26 08:49:00,
2013-07-26 01:54:00,77.6,66.6,27.44,WSW,248,0.0,0.4,69,0.00,,,0.00,WUHU216HW,2013-07-26 08:54:00,
2013-07-26 01:59:00,77.4,66.5,27.44,West,270,0.0,0.0,69,0.00,,,0.00,WUHU216HW,2013-07-26 08:59:00,
2013-07-26 02:04:00,77.4,67.0,27.44,North,0,0.0,0.2,70,0.00,,,0.00,WUHU216HW,2013-07-26 09:04:00,
2013-07-26 02:09:00,77.4,67.0,27.44,North,0,0.0,0.2,70,0.00,,,0.00,WUHU216HW,2013-07-26 09:09:00,
2013-07-26 02:14:00,77.4,67.0,27.44,North,0,0.0,0.0,70,0.00,,,0.00,WUHU216HW,2013-07-26 09:14:00,
2013-07-26 02:19:00,77.4,67.3,27.44,North,0,0.0,0.0,71,0.00,,,0.00,WUHU216HW,2013-07-26 09:19:00,
2013-07-26 02:24:00,77.4,67.3,27.44,North,0,0.0,0.0,71,0.00,,,0.00,WUHU216HW,2013-07-26 09:24:00,
2013-07-26 02:29:00,77.4,67.3,27.44,SSE,158,0.0,0.0,71,0.00,,,0.00,WUHU216HW,2013-07-26 09:29:00,
2013-07-26 02:34:00,77.4,67.3,27.44,SE,135,0.0,0.0,71,0.00,,,0.00,WUHU216HW,2013-07-26 09:34:00,
2013-07-26 02:39:00,77.4,67.3,27.44,SE,135,0.0,0.0,71,0.00,,,0.00,WUHU216HW,2013-07-26 09:39:00,
2013-07-26 02:44:00,77.2,67.1,27.44,ESE,113,0.0,0.0,71,0.00,,,0.00,WUHU216HW,2013-07-26 09:44:00,
2013-07-26 02:49:00,77.0,67.0,27.44,SE,135,0.0,0.0,71,0.00,,,0.00,WUHU216HW,2013-07-26 09:49:00,
2013-07-26 02:54:00,77.0,67.0,27.44,ESE,113,0.0,0.0,71,0.00,,,0.00,WUHU216HW,2013-07-26 09:54:00,
2013-07-26 02:59:00,77.0,67.0,27.45,SE,135,0.4,1.1,71,0.00,,,0.00,WUHU216HW,2013-07-26 09:59:00,
2013-07-26 03:04:00,76.9,66.8,27.45,East,90,0.0,1.1,71,0.00,,,0.00,WUHU216HW,2013-07-26 10:04:00,
2013-07-26 03:09:00,76.9,67.1,27.45,ENE,68,0.0,0.9,72,0.00,,,0.00,WUHU216HW,2013-07-26 10:09:00,
2013-07-26 03:14:00,76.9,67.6,27.45,ESE,113,0.0,0.0,73,0.00,,,0.00,WUHU216HW,2013-07-26 10:14:00,
2013-07-26 03:19:00,76.7,67.8,27.45,ESE,113,0.0,0.0,74,0.00,,,0.00,WUHU216HW,2013-07-26 10:19:00,
2013-07-26 03:24:00,76.5,67.6,27.45,SSE,158,0.0,0.0,74,0.00,,,0.00,WUHU216HW,2013-07-26 10:24:00,
2013-07-26 03:29:00,76.5,67.2,27.45,East,90,0.0,0.4,73,0.00,,,0.00,WUHU216HW,2013-07-26 10:29:00,
2013-07-26 03:34:00,76.5,66.9,27.45,NE,45,0.0,0.4,72,0.00,,,0.00,WUHU216HW,2013-07-26 10:34:00,
2013-07-26 03:39:00,76.5,66.9,27.45,NE,45,0.0,0.0,72,0.00,,,0.00,WUHU216HW,2013-07-26 10:39:00,
2013-07-26 03:44:00,76.5,66.9,27.46,NE,45,0.0,0.0,72,0.00,,,0.00,WUHU216HW,2013-07-26 10:44:00,
2013-07-26 03:49:00,76.5,66.9,27.46,NE,45,0.0,0.0,72,0.00,,,0.00,WUHU216HW,2013-07-26 10:49:00,
2013-07-26 03:54:00,76.5,66.9,27.46,NE,45,0.0,0.0,72,0.00,,,0.00,WUHU216HW,2013-07-26 10:54:00,
2013-07-26 03:59:00,76.5,66.4,27.46,NE,45,0.0,0.0,71,0.00,,,0.00,WUHU216HW,2013-07-26 10:59:00,
2013-07-26 04:04:00,76.5,66.4,27.46,NE,45,0.0,0.0,71,0.00,,,0.00,WUHU216HW,2013-07-26 11:04:00,
2013-07-26 04:09:00,76.5,66.4,27.47,NE,45,0.0,0.0,71,0.00,,,0.00,WUHU216HW,2013-07-26 11:09:00,
2013-07-26 04:14:00,76.5,66.4,27.47,NE,45,0.0,0.0,71,0.00,,,0.00,WUHU216HW,2013-07-26 11:14:00,
2013-07-26 04:19:00,76.5,66.9,27.47,NE,45,0.0,0.0,72,0.00,,,0.00,WUHU216HW,2013-07-26 11:19:00,
2013-07-26 04:24:00,76.5,66.4,27.47,NE,45,0.0,0.0,71,0.00,,,0.00,WUHU216HW,2013-07-26 11:24:00,
2013-07-26 04:29:00,76.3,66.7,27.47,NE,45,0.0,0.0,72,0.00,,,0.00,WUHU216HW,2013-07-26 11:29:00,
2013-07-26 04:34:00,76.3,66.7,27.47,NE,45,0.0,0.0,72,0.00,,,0.00,WUHU216HW,2013-07-26 11:34:00,
2013-07-26 04:39:00,76.1,66.5,27.47,NNE,23,0.0,0.0,72,0.00,,,0.00,WUHU216HW,2013-07-26 11:39:00,
2013-07-26 04:44:00,76.1,66.5,27.47,North,0,0.0,0.0,72,0.00,,,0.00,WUHU216HW,2013-07-26 11:44:00,
2013-07-26 04:49:00,76.1,66.5,27.47,North,0,0.0,0.0,72,0.00,,,0.00,WUHU216HW,2013-07-26 11:49:00,
2013-07-26 04:54:00,76.1,66.5,27.47,North,0,0.0,0.0,72,0.00,,,0.00,WUHU216HW,2013-07-26 11:54:00,
2013-07-26 04:59:00,76.1,66.5,27.47,North,0,0.0,0.0,72,0.00,,,0.00,WUHU216HW,2013-07-26 11:59:00,
2013-07-26 05:04:00,76.1,66.5,27.47,North,0,0.0,0.0,72,0.00,,,0.00,WUHU216HW,2013-07-26 12:04:00,
2013-07-26 05:09:00,76.1,66.5,27.47,North,0,0.0,0.0,72,0.00,,,0.00,WUHU216HW,2013-07-26 12:09:00,
2013-07-26 05:14:00,76.1,66.5,27.48,North,0,0.0,0.0,72,0.00,,,0.00,WUHU216HW,2013-07-26 12:14:00,
2013-07-26 05:19:00,76.1,66.5,27.48,North,0,0.0,0.0,72,0.00,,,0.00,WUHU216HW,2013-07-26 12:19:00,
2013-07-26 05:24:00,76.1,66.5,27.48,North,0,0.0,0.0,72,0.00,,,0.00,WUHU216HW,2013-07-26 12:24:00,
2013-07-26 05:29:00,76.0,66.3,27.48,North,0,0.0,0.0,72,0.00,,,0.00,WUHU216HW,2013-07-26 12:29:00,
2013-07-26 05:34:00,76.0,66.7,27.48,SE,135,0.0,0.0,73,0.00,,,0.00,WUHU216HW,2013-07-26 12:34:00,
2013-07-26 05:39:00,76.0,66.3,27.49,SE,135,0.0,0.0,72,0.00,,,0.00,WUHU216HW,2013-07-26 12:39:00,
2013-07-26 05:44:00,76.0,66.7,27.49,SE,135,0.0,0.0,73,0.00,,,0.00,WUHU216HW,2013-07-26 12:44:00,
2013-07-26 05:49:00,76.0,66.7,27.49,ESE,113,0.0,0.0,73,0.00,,,0.00,WUHU216HW,2013-07-26 12:49:00,
2013-07-26 05:54:00,76.0,66.7,27.49,ESE,113,0.0,0.0,73,0.00,,,0.00,WUHU216HW,2013-07-26 12:54:00,
2013-07-26 05:59:00,76.0,66.7,27.49,ESE,113,0.0,0.0,73,0.00,,,0.00,WUHU216HW,2013-07-26 12:59:00,
2013-07-26 06:04:00,76.0,66.7,27.49,ESE,113,0.0,0.0,73,0.00,,,0.00,WUHU216HW,2013-07-26 13:04:00,
2013-07-26 06:09:00,76.0,66.7,27.49,East,90,0.0,0.0,73,0.00,,,0.00,WUHU216HW,2013-07-26 13:09:00,
2013-07-26 06:14:00,75.8,66.5,27.50,North,0,0.2,0.4,73,0.00,,,0.00,WUHU216HW,2013-07-26 13:14:00,
2013-07-26 06:19:00,75.8,66.5,27.50,North,0,0.0,0.4,73,0.00,,,0.00,WUHU216HW,2013-07-26 13:19:00,
2013-07-26 06:24:00,75.8,66.5,27.50,West,270,0.0,0.2,73,0.00,,,0.00,WUHU216HW,2013-07-26 13:24:00,
2013-07-26 06:29:00,76.0,66.7,27.50,West,270,0.0,0.0,73,0.00,,,0.00,WUHU216HW,2013-07-26 13:29:00,
2013-07-26 06:34:00,76.0,66.7,27.50,West,270,0.0,0.0,73,0.00,,,0.00,WUHU216HW,2013-07-26 13:34:00,
2013-07-26 06:39:00,76.0,66.7,27.50,West,270,0.0,0.0,73,0.00,,,0.00,WUHU216HW,2013-07-26 13:39:00,
2013-07-26 06:44:00,76.1,66.9,27.51,SW,225,0.0,0.0,73,0.00,,,0.00,WUHU216HW,2013-07-26 13:44:00,
2013-07-26 06:49:00,76.1,66.9,27.51,ENE,68,0.0,0.0,73,0.00,,,0.00,WUHU216HW,2013-07-26 13:49:00,
2013-07-26 06:54:00,76.1,66.9,27.51,NNE,23,0.4,0.7,73,0.00,,,0.00,WUHU216HW,2013-07-26 13:54:00,
2013-07-26 06:59:00,76.1,66.9,27.51,NNE,23,0.4,0.7,73,0.00,,,0.00,WUHU216HW,2013-07-26 13:59:00,
2013-07-26 07:04:00,76.3,67.1,27.51,NNE,23,0.0,0.4,73,0.00,,,0.00,WUHU216HW,2013-07-26 14:04:00,
2013-07-26 07:09:00,76.3,67.1,27.51,SW,225,0.4,0.4,73,0.00,,,0.00,WUHU216HW,2013-07-26 14:09:00,
2013-07-26 07:14:00,76.5,66.9,27.52,SSE,158,0.2,0.4,72,0.00,,,0.00,WUHU216HW,2013-07-26 14:14:00,
2013-07-26 07:19:00,76.7,67.0,27.52,SW,225,0.0,0.4,72,0.00,,,0.00,WUHU216HW,2013-07-26 14:19:00,
2013-07-26 07:24:00,76.9,67.1,27.52,SW,225,0.0,0.0,72,0.00,,,0.00,WUHU216HW,2013-07-26 14:24:00,
2013-07-26 07:29:00,77.0,67.3,27.52,West,270,0.0,0.0,72,0.00,,,0.00,WUHU216HW,2013-07-26 14:29:00,
2013-07-26 07:34:00,77.2,67.1,27.52,SSW,203,0.0,0.0,71,0.00,,,0.00,WUHU216HW,2013-07-26 14:34:00,
2013-07-26 07:39:00,77.4,67.3,27.52,South,180,0.0,0.4,71,0.00,,,0.00,WUHU216HW,2013-07-26 14:39:00,
2013-07-26 07:44:00,77.8,67.6,27.52,NW,315,0.0,0.4,71,0.00,,,0.00,WUHU216HW,2013-07-26 14:44:00,
2013-07-26 07:49:00,78.1,68.0,27.52,SW,225,0.0,0.0,71,0.00,,,0.00,WUHU216HW,2013-07-26 14:49:00,
2013-07-26 07:54:00,78.5,67.9,27.52,NNW,338,0.0,0.4,70,0.00,,,0.00,WUHU216HW,2013-07-26 14:54:00,
2013-07-26 07:59:00,78.8,67.8,27.52,NNW,338,0.0,0.4,69,0.00,,,0.00,WUHU216HW,2013-07-26 14:59:00,
2013-07-26 08:04:00,79.2,67.7,27.52,NNW,338,0.0,0.0,68,0.00,,,0.00,WUHU216HW,2013-07-26 15:04:00,
2013-07-26 08:09:00,79.2,67.2,27.52,NE,45,0.0,0.0,67,0.00,,,0.00,WUHU216HW,2013-07-26 15:09:00,
2013-07-26 08:14:00,79.6,67.6,27.52,NE,45,0.0,0.0,67,0.00,,,0.00,WUHU216HW,2013-07-26 15:14:00,
2013-07-26 08:19:00,79.7,67.8,27.52,NE,45,0.0,0.0,67,0.00,,,0.00,WUHU216HW,2013-07-26 15:19:00,
2013-07-26 08:24:00,79.9,67.5,27.52,NE,45,0.9,1.1,66,0.00,,,0.00,WUHU216HW,2013-07-26 15:24:00,
2013-07-26 08:29:00,80.1,67.7,27.52,North,0,0.0,1.1,66,0.00,,,0.00,WUHU216HW,2013-07-26 15:29:00,
2013-07-26 08:34:00,80.3,67.9,27.52,NNW,338,0.0,1.1,66,0.00,,,0.00,WUHU216HW,2013-07-26 15:34:00,
2013-07-26 08:39:00,80.6,67.8,27.52,NE,45,0.0,1.1,65,0.00,,,0.00,WUHU216HW,2013-07-26 15:39:00,
2013-07-26 08:44:00,81.0,67.7,27.52,ESE,113,1.1,1.1,64,0.00,,,0.00,WUHU216HW,2013-07-26 15:44:00,
2013-07-26 08:49:00,81.4,68.0,27.52,SSE,158,0.2,1.1,64,0.00,,,0.00,WUHU216HW,2013-07-26 15:49:00,
2013-07-26 08:54:00,81.7,67.9,27.51,North,0,0.2,0.9,63,0.00,,,0.00,WUHU216HW,2013-07-26 15:54:00,
2013-07-26 08:59:00,82.1,67.7,27.51,NNE,23,0.2,0.9,62,0.00,,,0.00,WUHU216HW,2013-07-26 15:59:00,
2013-07-26 09:04:00,82.6,67.3,27.52,WSW,248,0.4,1.1,60,0.00,,,0.00,WUHU216HW,2013-07-26 16:04:00,
2013-07-26 09:09:00,83.0,67.1,27.51,SSE,158,1.1,1.1,59,0.00,,,0.00,WUHU216HW,2013-07-26 16:09:00,
2013-07-26 09:14:00,83.3,67.5,27.51,SE,135,1.3,1.3,59,0.00,,,0.00,WUHU216HW,2013-07-26 16:14:00,
2013-07-26 09:19:00,83.9,68.0,27.52,SW,225,0.4,1.3,59,0.00,,,0.00,WUHU216HW,2013-07-26 16:19:00,
2013-07-26 09:24:00,84.6,68.2,27.51,SSW,203,1.8,2.5,58,0.00,,,0.00,WUHU216HW,2013-07-26 16:24:00,
2013-07-26 09:29:00,85.0,68.1,27.51,SE,135,1.1,2.5,57,0.00,,,0.00,WUHU216HW,2013-07-26 16:29:00,
2013-07-26 09:34:00,85.7,68.1,27.51,South,180,0.7,2.5,56,0.00,,,0.00,WUHU216HW,2013-07-26 16:34:00,
2013-07-26 09:39:00,86.4,68.9,27.51,SE,135,0.4,2.5,56,0.00,,,0.00,WUHU216HW,2013-07-26 16:39:00,
2013-07-26 09:44:00,86.8,68.1,27.51,WSW,248,1.1,2.0,54,0.00,,,0.00,WUHU216HW,2013-07-26 16:44:00,
2013-07-26 09:49:00,86.9,68.3,27.51,NNW,338,0.0,2.2,54,0.00,,,0.00,WUHU216HW,2013-07-26 16:49:00,
2013-07-26 09:54:00,87.1,68.4,27.51,WNW,293,0.4,2.2,54,0.00,,,0.00,WUHU216HW,2013-07-26 16:54:00,
2013-07-26 09:59:00,87.5,67.7,27.51,WSW,248,2.9,2.9,52,0.00,,,0.00,WUHU216HW,2013-07-26 16:59:00,
2013-07-26 10:04:00,87.8,67.5,27.51,WSW,248,1.1,2.9,51,0.00,,,0.00,WUHU216HW,2013-07-26 17:04:00,
2013-07-26 10:09:00,88.4,68.0,27.51,SW,225,1.1,1.8,51,0.00,,,0.00,WUHU216HW,2013-07-26 17:09:00,
2013-07-26 10:14:00,88.7,68.3,27.51,NW,315,0.2,2.2,51,0.00,,,0.00,WUHU216HW,2013-07-26 17:14:00,
2013-07-26 10:19:00,89.1,68.1,27.51,SSE,158,0.2,2.2,50,0.00,,,0.00,WUHU216HW,2013-07-26 17:19:00,
2013-07-26 10:24:00,89.5,67.8,27.50,SW,225,1.1,2.0,49,0.00,,,0.00,WUHU216HW,2013-07-26 17:24:00,
2013-07-26 10:29:00,89.6,66.6,27.50,WSW,248,1.3,3.4,47,0.00,,,0.00,WUHU216HW,2013-07-26 17:29:00,
2013-07-26 10:34:00,90.0,67.0,27.50,SW,225,2.9,3.4,47,0.00,,,0.00,WUHU216HW,2013-07-26 17:34:00,
2013-07-26 10:39:00,90.4,67.3,27.50,NNE,23,1.8,2.9,47,0.00,,,0.00,WUHU216HW,2013-07-26 17:39:00,
2013-07-26 10:44:00,90.5,65.5,27.50,WNW,293,1.8,4.0,44,0.00,,,0.00,WUHU216HW,2013-07-26 17:44:00,
2013-07-26 10:49:00,90.7,66.3,27.50,WSW,248,2.5,4.0,45,0.00,,,0.00,WUHU216HW,2013-07-26 17:49:00,
2013-07-26 10:54:00,91.1,66.0,27.50,SW,225,1.1,4.0,44,0.00,,,0.00,WUHU216HW,2013-07-26 17:54:00,
2013-07-26 10:59:00,91.1,66.0,27.50,West,270,1.8,4.0,44,0.00,,,0.00,WUHU216HW,2013-07-26 17:59:00,
2013-07-26 11:04:00,91.1,66.0,27.49,South,180,0.9,1.8,44,0.00,,,0.00,WUHU216HW,2013-07-26 18:04:00,
2013-07-26 11:09:00,91.4,65.0,27.49,West,270,2.0,4.3,42,0.00,,,0.00,WUHU216HW,2013-07-26 18:09:00,
2013-07-26 11:14:00,91.8,64.7,27.49,West,270,1.1,4.3,41,0.00,,,0.00,WUHU216HW,2013-07-26 18:14:00,
2013-07-26 11:19:00,91.8,65.3,27.48,WNW,293,1.8,3.4,42,0.00,,,0.00,WUHU216HW,2013-07-26 18:19:00,
2013-07-26 11:24:00,92.0,65.5,27.48,SW,225,1.8,3.4,42,0.00,,,0.00,WUHU216HW,2013-07-26 18:24:00,
2013-07-26 11:29:00,92.2,65.7,27.48,WSW,248,1.6,1.8,42,0.00,,,0.00,WUHU216HW,2013-07-26 18:29:00,
2013-07-26 11:34:00,92.7,64.9,27.47,WNW,293,2.5,3.1,40,0.00,,,0.00,WUHU216HW,2013-07-26 18:34:00,
2013-07-26 11:39:00,92.9,65.0,27.48,SSW,203,2.5,4.0,40,0.00,,,0.00,WUHU216HW,2013-07-26 18:39:00,
2013-07-26 11:44:00,93.1,65.2,27.48,WSW,248,1.1,4.0,40,0.00,,,0.00,WUHU216HW,2013-07-26 18:44:00,
2013-07-26 11:49:00,93.2,65.3,27.48,West,270,1.3,4.0,40,0.00,,,0.00,WUHU216HW,2013-07-26 18:49:00,
2013-07-26 11:54:00,93.6,66.3,27.48,North,0,0.4,2.5,41,0.00,,,0.00,WUHU216HW,2013-07-26 18:54:00,
2013-07-26 11:59:00,94.0,66.0,27.48,WSW,248,2.0,2.7,40,0.00,,,0.00,WUHU216HW,2013-07-26 18:59:00,
2013-07-26 12:04:00,94.9,66.8,27.47,SSE,158,2.5,2.7,40,0.00,,,0.00,WUHU216HW,2013-07-26 19:04:00,
2013-07-26 12:09:00,95.2,65.5,27.47,SSW,203,1.8,3.6,38,0.00,,,0.00,WUHU216HW,2013-07-26 19:09:00,
2013-07-26 12:14:00,95.6,65.8,27.47,SW,225,4.5,4.5,38,0.00,,,0.00,WUHU216HW,2013-07-26 19:14:00,
2013-07-26 12:19:00,96.1,65.4,27.47,SW,225,4.5,4.5,37,0.00,,,0.00,WUHU216HW,2013-07-26 19:19:00,
2013-07-26 12:24:00,96.1,66.3,27.46,SSE,158,1.8,4.7,38,0.00,,,0.00,WUHU216HW,2013-07-26 19:24:00,
2013-07-26 12:29:00,96.5,65.0,27.46,ESE,113,1.3,4.7,36,0.00,,,0.00,WUHU216HW,2013-07-26 19:29:00,
2013-07-26 12:34:00,96.5,66.6,27.46,SSE,158,0.4,4.0,38,0.00,,,0.00,WUHU216HW,2013-07-26 19:34:00,
2013-07-26 12:39:00,96.8,64.4,27.46,WSW,248,2.5,3.4,35,0.00,,,0.00,WUHU216HW,2013-07-26 19:39:00,
2013-07-26 12:44:00,96.5,65.0,27.46,SW,225,3.1,4.0,36,0.00,,,0.00,WUHU216HW,2013-07-26 19:44:00,
2013-07-26 12:49:00,96.1,64.6,27.46,West,270,2.2,4.5,36,0.00,,,0.00,WUHU216HW,2013-07-26 19:49:00,
2013-07-26 12:54:00,96.3,64.0,27.46,WSW,248,3.1,6.3,35,0.00,,,0.00,WUHU216HW,2013-07-26 19:54:00,
2013-07-26 12:59:00,96.1,63.0,27.45,WSW,248,4.7,6.3,34,0.00,,,0.00,WUHU216HW,2013-07-26 19:59:00,
2013-07-26 13:04:00,96.5,64.2,27.45,SSW,203,4.5,6.0,35,0.00,,,0.00,WUHU216HW,2013-07-26 20:04:00,
2013-07-26 13:09:00,96.5,64.2,27.45,WSW,248,2.7,6.0,35,0.00,,,0.00,WUHU216HW,2013-07-26 20:09:00,
2013-07-26 13:14:00,96.5,64.2,27.45,West,270,2.2,4.5,35,0.00,,,0.00,WUHU216HW,2013-07-26 20:14:00,
2013-07-26 13:19:00,96.1,63.0,27.45,WNW,293,5.1,5.6,34,0.00,,,0.00,WUHU216HW,2013-07-26 20:19:00,
2013-07-26 13:24:00,95.4,63.2,27.45,WNW,293,4.7,5.6,35,0.00,,,0.00,WUHU216HW,2013-07-26 20:24:00,
2013-07-26 13:29:00,95.0,62.9,27.45,WSW,248,2.9,4.9,35,0.00,,,0.00,WUHU216HW,2013-07-26 20:29:00,
2013-07-26 13:34:00,94.9,62.7,27.44,West,270,3.4,3.4,35,0.00,,,0.00,WUHU216HW,2013-07-26 20:34:00,
2013-07-26 13:39:00,94.7,63.4,27.44,NW,315,1.8,3.4,36,0.00,,,0.00,WUHU216HW,2013-07-26 20:39:00,
2013-07-26 13:44:00,94.7,64.2,27.45,North,0,2.5,6.3,37,0.00,,,0.00,WUHU216HW,2013-07-26 20:44:00,
2013-07-26 13:49:00,94.7,64.2,27.44,NNW,338,2.2,6.3,37,0.00,,,0.00,WUHU216HW,2013-07-26 20:49:00,
2013-07-26 13:54:00,94.5,63.3,27.44,North,0,3.4,5.6,36,0.00,,,0.00,WUHU216HW,2013-07-26 20:54:00,
2013-07-26 13:59:00,94.5,63.3,27.44,North,0,1.6,5.6,36,0.00,,,0.00,WUHU216HW,2013-07-26 20:59:00,
2013-07-26 14:04:00,94.5,63.3,27.44,NNE,23,2.2,4.5,36,0.00,,,0.00,WUHU216HW,2013-07-26 21:04:00,
2013-07-26 14:09:00,94.7,64.2,27.44,East,90,2.9,3.1,37,0.00,,,0.00,WUHU216HW,2013-07-26 21:09:00,
2013-07-26 14:14:00,94.7,65.0,27.45,SW,225,0.7,3.1,38,0.00,,,0.00,WUHU216HW,2013-07-26 21:14:00,
2013-07-26 14:19:00,94.7,65.0,27.47,SE,135,3.6,6.9,38,0.00,,,0.00,WUHU216HW,2013-07-26 21:19:00,
2013-07-26 14:24:00,92.7,64.9,27.47,SE,135,4.0,6.9,40,0.00,,,0.00,WUHU216HW,2013-07-26 21:24:00,
2013-07-26 14:29:00,90.9,64.5,27.47,NW,315,2.9,4.7,42,0.00,,,0.00,WUHU216HW,2013-07-26 21:29:00,
2013-07-26 14:34:00,89.6,64.1,27.47,SE,135,3.6,4.3,43,0.00,,,0.00,WUHU216HW,2013-07-26 21:34:00,
2013-07-26 14:39:00,88.9,64.1,27.48,SE,135,2.7,5.1,44,0.00,,,0.00,WUHU216HW,2013-07-26 21:39:00,
2013-07-26 14:44:00,88.2,65.3,27.49,SSE,158,1.6,5.1,47,0.00,,,0.00,WUHU216HW,2013-07-26 21:44:00,
2013-07-26 14:49:00,86.9,65.5,27.50,ESE,113,0.4,4.0,49,0.00,,,0.00,WUHU216HW,2013-07-26 21:49:00,
2013-07-26 14:54:00,86.2,66.5,27.50,NW,315,1.8,3.4,52,0.00,,,0.00,WUHU216HW,2013-07-26 21:54:00,
2013-07-26 14:59:00,84.8,68.4,27.50,ESE,113,1.8,5.8,58,0.03,,,0.01,WUHU216HW,2013-07-26 21:59:00,
2013-07-26 15:04:00,82.6,67.8,27.49,North,0,2.2,5.8,61,0.09,,,0.09,WUHU216HW,2013-07-26 22:04:00,
2013-07-26 15:09:00,80.6,67.8,27.48,East,90,2.5,4.0,65,0.12,,,0.12,WUHU216HW,2013-07-26 22:09:00,
2013-07-26 15:14:00,79.7,67.3,27.47,ENE,68,1.8,4.0,66,0.12,,,0.12,WUHU216HW,2013-07-26 22:14:00,
2013-07-26 15:19:00,79.2,67.7,27.47,ESE,113,0.9,3.8,68,0.12,,,0.12,WUHU216HW,2013-07-26 22:19:00,
2013-07-26 15:24:00,79.2,67.7,27.47,SSE,158,0.4,2.5,68,0.12,,,0.12,WUHU216HW,2013-07-26 22:24:00,
2013-07-26 15:29:00,79.4,68.3,27.47,SW,225,0.7,2.5,69,0.12,,,0.12,WUHU216HW,2013-07-26 22:29:00,
2013-07-26 15:34:00,79.6,68.5,27.46,West,270,0.0,1.1,69,0.12,,,0.12,WUHU216HW,2013-07-26 22:34:00,
2013-07-26 15:39:00,79.7,68.7,27.46,SE,135,0.4,1.1,69,0.12,,,0.12,WUHU216HW,2013-07-26 22:39:00,
2013-07-26 15:44:00,79.7,68.7,27.46,SW,225,0.0,1.1,69,0.12,,,0.12,WUHU216HW,2013-07-26 22:44:00,
2013-07-26 15:49:00,79.9,68.9,27.46,SE,135,0.4,1.1,69,0.12,,,0.12,WUHU216HW,2013-07-26 22:49:00,
2013-07-26 15:54:00,80.1,69.8,27.46,ESE,113,0.9,1.1,71,0.12,,,0.12,WUHU216HW,2013-07-26 22:54:00,
2013-07-26 15:59:00,79.9,69.7,27.45,SE,135,0.4,1.1,71,0.08,,,0.12,WUHU216HW,2013-07-26 22:59:00,
2013-07-26 16:04:00,79.7,69.5,27.45,SE,135,1.3,2.2,71,0.02,,,0.12,WUHU216HW,2013-07-26 23:04:00,
2013-07-26 16:09:00,79.4,69.1,27.45,ENE,68,1.1,2.2,71,0.00,,,0.12,WUHU216HW,2013-07-26 23:09:00,
2013-07-26 16:14:00,79.6,69.8,27.45,NNW,338,0.7,2.0,72,0.00,,,0.12,WUHU216HW,2013-07-26 23:14:00,
2013-07-26 16:19:00,79.6,69.8,27.45,North,0,0.0,1.6,72,0.00,,,0.12,WUHU216HW,2013-07-26 23:19:00,
2013-07-26 16:24:00,79.6,69.8,27.45,ENE,68,1.3,1.3,72,0.00,,,0.12,WUHU216HW,2013-07-26 23:24:00,
2013-07-26 16:29:00,79.7,69.5,27.45,North,0,0.4,1.3,71,0.00,,,0.12,WUHU216HW,2013-07-26 23:29:00,
2013-07-26 16:30:00,79.7,69.5,27.45,NNE,23,0.0,0.0,71,0.00,,,0.12,WUHU216HW,2013-07-26 23:30:00,
2013-07-26 16:34:00,79.7,69.5,27.45,NNE,23,0.0,0.4,71,0.00,,,0.12,WUHU216HW,2013-07-26 23:34:00,
2013-07-26 16:39:00,79.7,69.5,27.45,NNE,23,0.0,0.2,71,0.00,,,0.12,WUHU216HW,2013-07-26 23:39:00,
2013-07-26 17:00:00,79.9,71.3,27.45,WNW,293,0.7,0.7,75,0.00,,,0.12,WUHU216HW,2013-07-27 00:00:00,
2013-07-26 17:05:00,79.9,70.9,27.45,West,270,0.0,0.7,74,0.00,,,0.12,WUHU216HW,2013-07-27 00:05:00,
2013-07-26 17:10:00,79.9,70.9,27.45,SW,225,0.0,1.1,74,0.00,,,0.12,WUHU216HW,2013-07-27 00:10:00,
2013-07-26 17:15:00,80.1,70.7,27.45,SW,225,0.2,1.1,73,0.00,,,0.12,WUHU216HW,2013-07-27 00:15:00,
2013-07-26 17:20:00,80.3,70.5,27.45,WSW,248,0.4,0.4,72,0.00,,,0.12,WUHU216HW,2013-07-27 00:20:00,
2013-07-26 17:25:00,80.6,70.8,27.45,SSW,203,1.3,2.0,72,0.00,,,0.12,WUHU216HW,2013-07-27 00:25:00,
2013-07-26 17:30:00,80.6,70.8,27.45,SW,225,0.9,2.0,72,0.00,,,0.12,WUHU216HW,2013-07-27 00:30:00,
2013-07-26 17:35:00,80.6,70.8,27.45,ESE,113,0.2,1.8,72,0.00,,,0.12,WUHU216HW,2013-07-27 00:35:00,
2013-07-26 17:40:00,80.5,70.7,27.45,SW,225,0.0,1.8,72,0.00,,,0.12,WUHU216HW,2013-07-27 00:40:00,
2013-07-26 17:45:00,80.5,70.7,27.45,ENE,68,0.0,0.4,72,0.00,,,0.12,WUHU216HW,2013-07-27 00:45:00,
2013-07-26 17:50:00,80.5,70.2,27.45,NE,45,0.4,0.4,71,0.00,,,0.12,WUHU216HW,2013-07-27 00:50:00,
2013-07-26 17:55:00,80.6,70.4,27.44,NNE,23,0.0,0.9,71,0.00,,,0.12,WUHU216HW,2013-07-27 00:55:00,
2013-07-26 18:00:00,80.6,70.8,27.44,WSW,248,0.9,0.9,72,0.00,,,0.12,WUHU216HW,2013-07-27 01:00:00,
2013-07-26 18:05:00,80.6,70.8,27.44,SW,225,1.1,1.1,72,0.00,,,0.12,WUHU216HW,2013-07-27 01:05:00,
2013-07-26 18:10:00,80.6,70.8,27.44,SW,225,0.4,1.1,72,0.00,,,0.12,WUHU216HW,2013-07-27 01:10:00,
2013-07-26 18:15:00,80.6,70.8,27.44,SSW,203,0.4,1.8,72,0.00,,,0.12,WUHU216HW,2013-07-27 01:15:00,
2013-07-26 18:20:00,80.6,71.2,27.44,ESE,113,1.1,1.8,73,0.00,,,0.12,WUHU216HW,2013-07-27 01:20:00,
2013-07-26 18:25:00,80.3,70.8,27.44,South,180,0.7,1.1,73,0.00,,,0.12,WUHU216HW,2013-07-27 01:25:00,
2013-07-26 18:30:00,80.3,70.5,27.44,SSE,158,1.1,1.1,72,0.00,,,0.12,WUHU216HW,2013-07-27 01:30:00,
2013-07-26 18:35:00,80.3,70.5,27.44,SE,135,0.0,1.1,72,0.00,,,0.12,WUHU216HW,2013-07-27 01:35:00,
2013-07-26 18:40:00,80.5,70.7,27.44,ENE,68,0.0,0.7,72,0.00,,,0.12,WUHU216HW,2013-07-27 01:40:00,
2013-07-26 18:45:00,80.5,70.7,27.44,SE,135,1.1,1.1,72,0.00,,,0.12,WUHU216HW,2013-07-27 01:45:00,
2013-07-26 18:50:00,80.5,70.7,27.44,SSE,158,0.0,1.1,72,0.00,,,0.12,WUHU216HW,2013-07-27 01:50:00,
2013-07-26 18:55:00,80.5,70.2,27.44,ESE,113,0.0,0.4,71,0.00,,,0.12,WUHU216HW,2013-07-27 01:55:00,
2013-07-26 19:00:00,80.5,70.2,27.44,NE,45,0.7,0.7,71,0.00,,,0.12,WUHU216HW,2013-07-27 02:00:00,
2013-07-26 19:05:00,80.5,70.2,27.44,ENE,68,0.4,0.7,71,0.00,,,0.12,WUHU216HW,2013-07-27 02:05:00,
2013-07-26 19:10:00,80.3,70.0,27.44,North,0,0.0,0.4,71,0.00,,,0.12,WUHU216HW,2013-07-27 02:10:00,
2013-07-26 19:15:00,80.3,70.5,27.44,ENE,68,0.0,0.2,72,0.00,,,0.12,WUHU216HW,2013-07-27 02:15:00,
2013-07-26 19:20:00,80.3,70.0,27.44,NE,45,0.2,0.2,71,0.00,,,0.12,WUHU216HW,2013-07-27 02:20:00,
2013-07-26 19:25:00,80.3,70.0,27.44,ENE,68,0.0,0.2,71,0.00,,,0.12,WUHU216HW,2013-07-27 02:25:00,
2013-07-26 19:30:00,80.3,70.0,27.44,NE,45,0.7,0.7,71,0.00,,,0.12,WUHU216HW,2013-07-27 02:30:00,
2013-07-26 19:35:00,80.1,70.3,27.44,ENE,68,0.0,0.7,72,0.00,,,0.12,WUHU216HW,2013-07-27 02:35:00,
2013-07-26 19:40:00,80.1,70.3,27.45,ENE,68,0.0,0.2,72,0.00,,,0.12,WUHU216HW,2013-07-27 02:40:00,
2013-07-26 19:45:00,79.9,70.1,27.45,SE,135,0.0,0.2,72,0.00,,,0.12,WUHU216HW,2013-07-27 02:45:00,
2013-07-26 19:50:00,79.9,70.1,27.45,SE,135,0.0,0.2,72,0.00,,,0.12,WUHU216HW,2013-07-27 02:50:00,
2013-07-26 19:55:00,79.9,70.1,27.45,SSW,203,0.0,0.0,72,0.00,,,0.12,WUHU216HW,2013-07-27 02:55:00,
2013-07-26 20:00:00,79.9,70.5,27.45,SSW,203,0.0,0.0,73,0.00,,,0.12,WUHU216HW,2013-07-27 03:00:00,
2013-07-26 20:05:00,79.9,70.5,27.45,SSW,203,0.0,0.0,73,0.00,,,0.12,WUHU216HW,2013-07-27 03:05:00,
2013-07-26 20:10:00,79.9,70.5,27.45,SSW,203,0.0,0.0,73,0.00,,,0.12,WUHU216HW,2013-07-27 03:10:00,
2013-07-26 20:15:00,79.9,70.5,27.46,NNW,338,0.0,0.0,73,0.00,,,0.12,WUHU216HW,2013-07-27 03:15:00,
2013-07-26 20:20:00,79.7,70.3,27.46,North,0,0.0,0.0,73,0.00,,,0.12,WUHU216HW,2013-07-27 03:20:00,
2013-07-26 20:25:00,79.7,70.8,27.46,North,0,0.0,0.0,74,0.00,,,0.12,WUHU216HW,2013-07-27 03:25:00,
2013-07-26 20:30:00,79.7,70.8,27.46,North,0,0.0,0.0,74,0.00,,,0.12,WUHU216HW,2013-07-27 03:30:00,
2013-07-26 20:35:00,79.6,70.6,27.47,NNE,23,0.0,0.0,74,0.00,,,0.12,WUHU216HW,2013-07-27 03:35:00,
2013-07-26 20:40:00,79.6,70.1,27.47,ESE,113,0.0,0.0,73,0.00,,,0.12,WUHU216HW,2013-07-27 03:40:00,
2013-07-26 20:45:00,79.6,70.1,27.48,ESE,113,0.0,0.0,73,0.00,,,0.12,WUHU216HW,2013-07-27 03:45:00,
2013-07-26 20:50:00,79.6,70.1,27.48,ESE,113,0.0,0.0,73,0.00,,,0.12,WUHU216HW,2013-07-27 03:50:00,
2013-07-26 20:55:00,79.6,70.6,27.48,ESE,113,0.0,0.0,74,0.00,,,0.12,WUHU216HW,2013-07-27 03:55:00,
2013-07-26 21:00:00,79.6,70.1,27.48,ESE,113,0.0,0.0,73,0.00,,,0.12,WUHU216HW,2013-07-27 04:00:00,
2013-07-26 21:01:00,79.6,70.1,27.48,ESE,113,0.0,0.0,73,0.00,,,0.12,WUHU216HW,2013-07-27 04:01:00,
2013-07-26 21:06:00,79.4,70.4,27.48,ESE,113,0.0,0.0,74,0.00,,,0.12,WUHU216HW,2013-07-27 04:06:00,
2013-07-26 21:11:00,79.4,70.4,27.48,ESE,113,0.0,0.0,74,0.00,,,0.12,WUHU216HW,2013-07-27 04:11:00,
2013-07-26 21:16:00,79.4,70.4,27.48,ESE,113,0.0,0.0,74,0.00,,,0.12,WUHU216HW,2013-07-27 04:16:00,
2013-07-26 21:21:00,79.2,70.2,27.48,ESE,113,0.0,0.0,74,0.00,,,0.12,WUHU216HW,2013-07-27 04:21:00,
2013-07-26 21:26:00,79.2,70.6,27.48,ESE,113,0.0,0.0,75,0.00,,,0.12,WUHU216HW,2013-07-27 04:26:00,
2013-07-26 21:31:00,79.0,70.0,27.48,ESE,113,0.0,0.0,74,0.00,,,0.12,WUHU216HW,2013-07-27 04:31:00,
2013-07-26 21:36:00,79.0,70.0,27.48,ESE,113,0.0,0.0,74,0.00,,,0.12,WUHU216HW,2013-07-27 04:36:00,
2013-07-26 21:41:00,79.0,70.0,27.48,ESE,113,0.0,0.0,74,0.00,,,0.12,WUHU216HW,2013-07-27 04:41:00,
2013-07-26 22:00:00,78.7,69.2,27.47,NNE,23,0.0,0.0,73,0.00,,,0.12,WUHU216HW,2013-07-27 05:00:00,
2013-07-26 22:05:00,78.7,69.2,27.47,NNE,23,0.0,0.0,73,0.00,,,0.12,WUHU216HW,2013-07-27 05:05:00,
2013-07-26 22:10:00,78.7,69.2,27.47,NNE,23,0.0,0.0,73,0.00,,,0.12,WUHU216HW,2013-07-27 05:10:00,
2013-07-26 22:11:00,78.7,69.7,27.47,NNE,23,0.0,0.0,74,0.00,,,0.12,WUHU216HW,2013-07-27 05:11:00,
2013-07-26 22:15:00,78.7,69.7,27.47,NNE,23,0.0,0.0,74,0.00,,,0.12,WUHU216HW,2013-07-27 05:15:00,
2013-07-26 22:20:00,78.7,69.7,27.47,NNE,23,0.0,0.0,74,0.00,,,0.12,WUHU216HW,2013-07-27 05:20:00,
2013-07-26 22:41:00,78.1,69.5,27.48,NNE,23,0.0,0.0,75,0.00,,,0.12,WUHU216HW,2013-07-27 05:41:00,
2013-07-26 22:46:00,78.1,69.5,27.48,NNE,23,0.0,0.0,75,0.00,,,0.12,WUHU216HW,2013-07-27 05:46:00,
2013-07-26 22:51:00,77.9,69.3,27.48,NNE,23,0.0,0.0,75,0.00,,,0.12,WUHU216HW,2013-07-27 05:51:00,
2013-07-26 22:56:00,77.9,69.3,27.47,NNE,23,0.2,0.2,75,0.00,,,0.12,WUHU216HW,2013-07-27 05:56:00,
2013-07-26 23:01:00,77.8,68.8,27.47,NNE,23,0.0,0.4,74,0.00,,,0.12,WUHU216HW,2013-07-27 06:01:00,
2013-07-26 23:06:00,77.8,68.4,27.47,SE,135,0.2,0.7,73,0.00,,,0.12,WUHU216HW,2013-07-27 06:06:00,
2013-07-26 23:11:00,77.6,68.6,27.47,SSE,158,0.0,0.7,74,0.00,,,0.12,WUHU216HW,2013-07-27 06:11:00,
2013-07-26 23:17:00,77.6,68.6,27.47,SE,135,0.0,0.0,74,0.00,,,0.12,WUHU216HW,2013-07-27 06:17:00,
2013-07-26 23:22:00,77.6,69.0,27.47,SE,135,0.0,0.0,75,0.00,,,0.12,WUHU216HW,2013-07-27 06:22:00,
2013-07-26 23:27:00,77.4,68.9,27.47,SE,135,0.0,0.0,75,0.00,,,0.12,WUHU216HW,2013-07-27 06:27:00,
2013-07-26 23:32:00,77.4,68.9,27.47,SE,135,0.0,0.0,75,0.00,,,0.12,WUHU216HW,2013-07-27 06:32:00,
2013-07-26 23:37:00,77.2,68.7,27.47,SE,135,0.0,0.0,75,0.00,,,0.12,WUHU216HW,2013-07-27 06:37:00,
2013-07-26 23:42:00,77.2,68.7,27.46,SE,135,0.0,0.0,75,0.00,,,0.12,WUHU216HW,2013-07-27 06:42:00,
2013-07-26 23:47:00,77.0,68.9,27.46,SE,135,0.0,0.0,76,0.00,,,0.12,WUHU216HW,2013-07-27 06:47:00,
2013-07-26 23:52:00,77.0,68.9,27.46,SE,135,0.0,0.0,76,0.00,,,0.12,WUHU216HW,2013-07-27 06:52:00,
2013-07-26 23:57:00,76.9,68.7,27.46,SE,135,0.0,0.0,76,0.00,,,0.12,WUHU216HW,2013-07-27 06:57:00,